Location: Powder Track
(41.8531°N, 72.3584°W)
Time: 08:19:14
(UTC+00:00)

Courier 1B - Visible Passes

Search period start: 31 July 2021 00:00
Search period end: 10 August 2021 00:00
Orbit: 962 x 1209 km, 28.3° (Epoch: 30 July)

Date Brightness Start Highest point End Pass type
(mag) Time Alt. Az. Time Alt. Az. Time Alt. Az.
31 Jul 8.7 01:51:18 10° SW 01:57:39 28° S 01:59:49 25° SSE visible
31 Jul 9.6 03:45:14 10° WSW 03:46:42 15° SW 03:46:42 15° SW visible
01 Aug 8.9 00:57:36 10° SW 01:03:57 28° S 01:09:17 13° ESE visible
01 Aug 8.9 02:51:11 10° WSW 02:56:09 25° SSW 02:56:09 25° SSW visible
02 Aug 8.7 01:57:15 10° WSW 02:03:37 28° S 02:05:34 25° SSE visible
02 Aug 9.8 03:51:52 10° WSW 03:52:26 12° WSW 03:52:26 12° WSW visible
03 Aug 8.8 01:03:23 10° WSW 01:09:55 29° S 01:14:56 15° SE visible
03 Aug 9.2 02:57:33 10° WSW 03:01:48 21° SSW 03:01:48 21° SSW visible
04 Aug 8.9 02:03:26 10° WSW 02:09:33 26° SSW 02:11:09 24° S visible
05 Aug 9.0 01:09:27 10° WSW 01:15:51 28° S 01:20:28 16° SE visible
05 Aug 9.5 03:04:26 10° WSW 03:07:20 16° SW 03:07:20 16° SW visible
06 Aug 9.2 02:10:00 10° WSW 02:15:26 21° SSW 02:16:40 20° S visible
07 Aug 9.2 01:15:47 10° WSW 01:21:45 24° SSW 01:26:00 15° SSE visible
07 Aug 9.9 03:12:49 10° SW 03:12:52 10° SW 03:12:52 10° SW visible
08 Aug 9.2 00:21:46 10° WSW 00:28:02 27° S 00:34:17 10° SE visible
08 Aug 9.5 02:17:14 10° SW 02:21:13 15° SSW 02:22:13 14° SSW visible
09 Aug 9.5 01:22:35 10° WSW 01:27:36 18° SSW 01:31:35 13° SSE visible
